Flag for China Weather past 2 weeks in Xiamen, Fujian, China

Now
86 °F

Scattered clouds.


Feels Like: 97 °F
Forecast: 78 / 88 °F
Wind: 6 mph from East

Location: Xiamen Airport

Current Time: Sep 24, 2014 at 12:52:58 PM

Latest Report: Sep 24, 2014 at 12:00 PM


Visibility: N/A

Pressure: 29.86 "Hg

Humidity: 75%

Dew point: 77 °F

Location of XiamenLocation

Historic Weather in Xiamen — Graph

°F

Xiamen temperature yesterday

Maximum temperature yesterday: 90 °F (at 12:00 PM)
Minimum temperature yesterday: 79 °F (at 2:00 AM)
Average temperature yesterday: 83 °F

Past Weeks' High & Low Weather Summary

 TemperatureHumidityPressure
High95 °F (Sep 14, 2:00 PM)94% (Sep 10, 3:00 AM)29.95 "Hg (Sep 10, 3:00 AM)
Low75 °F (Sep 22, 6:00 AM)47% (Sep 19, 10:00 AM)29.56 "Hg (Sep 20, 3:00 PM)
Average86 °F74%29.76 "Hg
* Reported Sep 9 11:00 AM — Sep 24 11:00 AM, Xiamen, Weather by CustomWeather, © 2014

Note: Actual official high and low records may vary slightly from our data, if they occured in-between our weather recording intervals... More about our weather records

Advertising

Xiamen weather history for previous 24 hours

 ConditionsComfort  
Time TempWeatherWind HumidityBarometerVisibility
11:00 AM
Sep 24
86 °FSprinkles. Scattered clouds.3 mph75%29.89 "HgN/A
10:00 AM86 °FScattered clouds.6 mph75%29.89 "HgN/A
9:00 AM84 °FScattered clouds.6 mph79%29.89 "Hg4 mi
8:00 AM82 °FFog.3 mph84%29.89 "Hg3 mi
7:00 AM82 °FFog.3 mph89%29.86 "Hg3 mi
6:00 AM81 °FScattered clouds.1 mph84%29.83 "Hg5 mi
5:00 AM81 °FPassing clouds.No wind84%29.83 "HgN/A
4:00 AM81 °FPassing clouds.1 mph84%29.80 "HgN/A
3:00 AM81 °FPassing clouds.No wind84%29.80 "HgN/A
2:00 AM81 °FPassing clouds.3 mph84%29.83 "HgN/A
1:00 AM81 °FPassing clouds.3 mph84%29.83 "HgN/A
12:00 AM82 °FPassing clouds.3 mph79%29.83 "HgN/A
11:00 PM
Sep 23
82 °FPassing clouds.3 mph79%29.83 "HgN/A
10:00 PM82 °FPassing clouds.1 mph84%29.83 "HgN/A
9:00 PM82 °FPassing clouds.3 mph79%29.83 "HgN/A
8:00 PM82 °FPassing clouds.3 mph84%29.80 "HgN/A
7:00 PM82 °FClear.3 mph84%29.77 "Hg10 mi
6:00 PM84 °FPassing clouds.8 mph74%29.77 "HgN/A
5:00 PM84 °FPassing clouds.13 mph79%29.74 "HgN/A
4:00 PM88 °FSunny.10 mph70%29.74 "Hg10 mi
3:00 PM90 °FPassing clouds.8 mph63%29.71 "HgN/A
2:00 PM88 °FPassing clouds.6 mph66%29.74 "HgN/A
1:00 PM86 °FScattered clouds.3 mph70%29.77 "HgN/A
12:00 PM90 °FScattered clouds.1 mph63%29.77 "HgN/A
Weather by CustomWeather, © 2014

See weather overviewHow to use our weather pages